カタログに戻る

SHIYAN 30-03

運用中軍事VLEO
NORAD 68139·PAYLOAD·🇨🇳 China

打ち上げ Mar 12, 2026 から Xichang Satellite Launch Center

Loading…

次のパス (今後24時間)

TLE

最新Source: Space-Track

元期: Sep 14, 2026, 18:27 UTC

1 68139U 26048A   26257.76883440  .00001378  00000-0  13614-3 0  9996
2 68139  34.9995  91.0501 0004044  21.9767 338.1111 14.91969543 27758

AllMySatでSHIYAN 30-03をリアルタイム追跡

Download on the App Store